TimeEDT,TemperatureF,Dew PointF,Humidity,Sea Level PressureIn,VisibilityMPH,Wind Direction,Wind SpeedMPH,Gust SpeedMPH,PrecipitationIn,Events,Conditions,WindDirDegrees,DateUTC
12:51 AM,60.1,43.0,53,29.68,10.0,SSE,13.8,-,N/A,,Mostly Cloudy,150,2012-10-18 04:51:00
1:51 AM,60.1,41.0,49,29.68,10.0,SSE,15.0,-,N/A,,Mostly Cloudy,160,2012-10-18 05:51:00
2:51 AM,57.9,41.0,53,29.65,10.0,SSE,13.8,-,N/A,,Mostly Cloudy,160,2012-10-18 06:51:00
3:51 AM,57.0,39.9,53,29.65,10.0,South,17.3,-,N/A,,Scattered Clouds,170,2012-10-18 07:51:00
4:51 AM,55.9,41.0,57,29.63,10.0,South,15.0,-,N/A,,Scattered Clouds,170,2012-10-18 08:51:00
5:51 AM,55.9,41.0,57,29.61,10.0,SSE,16.1,-,N/A,,Scattered Clouds,150,2012-10-18 09:51:00
6:51 AM,55.9,41.0,57,29.60,9.0,SSE,12.7,-,N/A,,Mostly Cloudy,160,2012-10-18 10:51:00
7:51 AM,57.0,41.0,55,29.61,10.0,South,18.4,-,N/A,,Mostly Cloudy,170,2012-10-18 11:51:00
8:51 AM,57.9,42.1,56,29.59,8.0,SSE,18.4,-,N/A,,Mostly Cloudy,160,2012-10-18 12:51:00
9:51 AM,60.1,43.0,53,29.59,8.0,South,17.3,25.3,N/A,,Mostly Cloudy,180,2012-10-18 13:51:00
10:51 AM,62.1,44.1,52,29.59,8.0,South,26.5,34.5,N/A,,Mostly Cloudy,190,2012-10-18 14:51:00
11:51 AM,61.0,46.0,58,29.61,10.0,South,24.2,35.7,N/A,,Overcast,190,2012-10-18 15:51:00
12:41 PM,53.6,46.4,77,29.66,2.0,SW,21.9,43.7,0.03,Rain,Rain,220,2012-10-18 16:41:00
12:51 PM,54.0,48.0,80,29.66,6.0,SW,15.0,28.8,0.04,Rain,Light Rain,230,2012-10-18 16:51:00
1:51 PM,53.1,45.0,74,29.68,8.0,SSW,13.8,-,0.00,,Overcast,210,2012-10-18 17:51:00
2:51 PM,53.1,46.0,77,29.68,8.0,South,9.2,-,0.00,,Mostly Cloudy,190,2012-10-18 18:51:00
3:51 PM,53.1,46.0,77,29.69,9.0,South,10.4,-,N/A,,Overcast,180,2012-10-18 19:51:00
4:51 PM,54.0,46.0,75,29.68,9.0,South,10.4,-,N/A,,Mostly Cloudy,170,2012-10-18 20:51:00
5:51 PM,54.0,46.0,75,29.70,9.0,SSE,11.5,-,0.00,,Mostly Cloudy,160,2012-10-18 21:51:00
6:51 PM,52.0,45.0,77,29.72,9.0,SSE,11.5,-,N/A,,Scattered Clouds,160,2012-10-18 22:51:00
7:51 PM,52.0,45.0,77,29.75,10.0,SSE,10.4,-,N/A,,Scattered Clouds,160,2012-10-18 23:51:00
8:51 PM,50.0,44.1,80,29.78,10.0,SSE,10.4,-,N/A,,Scattered Clouds,160,2012-10-19 00:51:00
9:51 PM,50.0,44.1,80,29.78,10.0,SSE,9.2,-,N/A,,Scattered Clouds,160,2012-10-19 01:51:00
10:51 PM,48.0,42.1,80,29.79,10.0,South,8.1,-,N/A,,Scattered Clouds,170,2012-10-19 02:51:00
11:51 PM,46.9,42.1,83,29.78,9.0,SSE,8.1,-,N/A,,Scattered Clouds,160,2012-10-19 03:51:00